Time,TemperatureF,DewpointF,PressureIn,WindDirection,WindDirectionDegrees,WindSpeedMPH,WindSpeedGustMPH,Humidity,HourlyPrecipIn,Conditions,Clouds,dailyrainin,SoftwareType,DateUTC
2013-07-23 00:04:00,70.7,53.2,29.86,WSW,250,4.0,0.0,54,0.00,,,0.00,WeatherTracker,2013-07-23 07:04:00,
2013-07-23 00:09:00,70.7,52.7,29.86,SW,235,4.0,0.0,53,0.00,,,0.00,WeatherTracker,2013-07-23 07:09:00,
2013-07-23 00:14:00,70.8,52.3,29.86,WNW,297,5.0,0.0,52,0.00,,,0.00,WeatherTracker,2013-07-23 07:14:00,
2013-07-23 00:19:00,70.9,52.4,29.86,NW,311,9.0,0.0,52,0.00,,,0.00,WeatherTracker,2013-07-23 07:19:00,
2013-07-23 00:24:00,71.1,51.0,29.86,SW,218,3.0,0.0,49,0.00,,,0.00,WeatherTracker,2013-07-23 07:24:00,
2013-07-23 00:29:00,71.2,51.6,29.86,WSW,242,4.0,0.0,50,0.00,,,0.00,WeatherTracker,2013-07-23 07:29:00,
2013-07-23 00:34:00,71.3,51.7,29.86,SSW,199,5.0,0.0,50,0.00,,,0.00,WeatherTracker,2013-07-23 07:34:00,
2013-07-23 00:39:00,71.2,52.1,29.86,WSW,257,2.0,0.0,51,0.00,,,0.00,WeatherTracker,2013-07-23 07:39:00,
2013-07-23 00:44:00,71.1,52.0,29.86,WNW,283,3.0,0.0,51,0.00,,,0.00,WeatherTracker,2013-07-23 07:44:00,
2013-07-23 00:49:00,71.0,51.9,29.85,West,264,2.0,0.0,51,0.00,,,0.00,WeatherTracker,2013-07-23 07:49:00,
2013-07-23 00:55:00,70.9,52.4,29.85,WSW,246,5.0,0.0,52,0.00,,,0.00,WeatherTracker,2013-07-23 07:55:00,
2013-07-23 01:00:00,70.8,51.8,29.85,WSW,246,3.0,0.0,51,0.00,,,0.00,WeatherTracker,2013-07-23 08:00:00,
2013-07-23 01:05:00,70.8,52.3,29.85,WNW,284,0.0,0.0,52,0.00,,,0.00,WeatherTracker,2013-07-23 08:05:00,
2013-07-23 01:10:00,70.7,52.2,29.85,WSW,244,3.0,0.0,52,0.00,,,0.00,WeatherTracker,2013-07-23 08:10:00,
2013-07-23 01:15:00,70.6,52.1,29.86,SW,218,4.0,0.0,52,0.00,,,0.00,WeatherTracker,2013-07-23 08:15:00,
2013-07-23 01:20:00,70.5,52.0,29.86,WNW,296,2.0,0.0,52,0.00,,,0.00,WeatherTracker,2013-07-23 08:20:00,
2013-07-23 01:25:00,70.4,52.4,29.87,SW,232,2.0,0.0,53,0.00,,,0.00,WeatherTracker,2013-07-23 08:25:00,
2013-07-23 01:30:00,70.2,53.8,29.88,SW,227,4.0,0.0,56,0.00,,,0.00,WeatherTracker,2013-07-23 08:30:00,
2013-07-23 01:35:00,69.7,55.2,29.88,SW,223,4.0,0.0,60,0.00,,,0.00,WeatherTracker,2013-07-23 08:35:00,
2013-07-23 01:40:00,68.9,55.8,29.88,WSW,238,4.0,0.0,63,0.00,,,0.00,WeatherTracker,2013-07-23 08:40:00,
2013-07-23 01:45:00,68.3,55.6,29.87,SW,230,1.0,0.0,64,0.00,,,0.00,WeatherTracker,2013-07-23 08:45:00,
2013-07-23 01:50:00,67.8,55.6,29.87,SW,225,3.0,0.0,65,0.00,,,0.00,WeatherTracker,2013-07-23 08:50:00,
2013-07-23 01:55:00,67.4,55.6,29.87,SW,219,5.0,0.0,66,0.00,,,0.00,WeatherTracker,2013-07-23 08:55:00,
2013-07-23 02:00:00,67.0,55.7,29.87,SW,222,10.0,0.0,67,0.00,,,0.00,WeatherTracker,2013-07-23 09:00:00,
2013-07-23 02:05:00,66.6,55.3,29.87,SSW,204,5.0,0.0,67,0.00,,,0.00,WeatherTracker,2013-07-23 09:05:00,
2013-07-23 02:10:00,66.3,55.4,29.87,SSW,198,3.0,0.0,68,0.00,,,0.00,WeatherTracker,2013-07-23 09:10:00,
2013-07-23 02:15:00,66.0,55.5,29.87,SW,235,4.0,0.0,69,0.00,,,0.00,WeatherTracker,2013-07-23 09:15:00,
2013-07-23 02:20:00,65.9,55.4,29.88,SSW,213,4.0,0.0,69,0.00,,,0.00,WeatherTracker,2013-07-23 09:20:00,
2013-07-23 02:25:00,65.8,55.3,29.88,SW,231,6.0,0.0,69,0.00,,,0.00,WeatherTracker,2013-07-23 09:25:00,
2013-07-23 02:30:00,65.7,55.2,29.86,SSW,211,6.0,0.0,69,0.00,,,0.00,WeatherTracker,2013-07-23 09:30:00,
2013-07-23 02:35:00,65.6,55.1,29.86,SSW,202,3.0,0.0,69,0.00,,,0.00,WeatherTracker,2013-07-23 09:35:00,
2013-07-23 02:40:00,65.6,55.1,29.86,SSW,205,5.0,0.0,69,0.00,,,0.00,WeatherTracker,2013-07-23 09:40:00,
2013-07-23 02:45:00,65.6,55.1,29.86,SSW,196,5.0,0.0,69,0.00,,,0.00,WeatherTracker,2013-07-23 09:45:00,
2013-07-23 02:50:00,65.5,55.1,29.86,SW,222,4.0,0.0,69,0.00,,,0.00,WeatherTracker,2013-07-23 09:50:00,
2013-07-23 02:55:00,65.4,55.0,29.86,West,275,6.0,0.0,69,0.00,,,0.00,WeatherTracker,2013-07-23 09:55:00,
2013-07-23 03:00:00,65.4,55.0,29.84,West,280,5.0,0.0,69,0.00,,,0.00,WeatherTracker,2013-07-23 10:00:00,
2013-07-23 03:05:00,65.3,54.9,29.84,West,269,5.0,0.0,69,0.00,,,0.00,WeatherTracker,2013-07-23 10:05:00,
2013-07-23 03:10:00,65.3,54.5,29.84,SW,226,4.0,0.0,68,0.00,,,0.00,WeatherTracker,2013-07-23 10:10:00,
2013-07-23 03:15:00,65.3,54.5,29.84,SW,234,6.0,0.0,68,0.00,,,0.00,WeatherTracker,2013-07-23 10:15:00,
2013-07-23 03:20:00,65.4,54.6,29.85,West,263,1.0,0.0,68,0.00,,,0.00,WeatherTracker,2013-07-23 10:20:00,
2013-07-23 03:25:00,65.3,54.5,29.85,SW,227,4.0,0.0,68,0.00,,,0.00,WeatherTracker,2013-07-23 10:25:00,
2013-07-23 03:31:00,65.4,54.6,29.84,SW,214,2.0,0.0,68,0.00,,,0.00,WeatherTracker,2013-07-23 10:31:00,
2013-07-23 03:36:00,65.4,54.1,29.85,South,190,5.0,0.0,67,0.00,,,0.00,WeatherTracker,2013-07-23 10:36:00,
2013-07-23 03:41:00,65.4,54.1,29.86,SW,215,5.0,0.0,67,0.00,,,0.00,WeatherTracker,2013-07-23 10:41:00,
2013-07-23 03:46:00,65.6,54.3,29.86,SW,214,6.0,0.0,67,0.00,,,0.00,WeatherTracker,2013-07-23 10:46:00,
2013-07-23 03:51:00,65.8,54.5,29.86,WSW,257,5.0,0.0,67,0.00,,,0.00,WeatherTracker,2013-07-23 10:51:00,
2013-07-23 03:56:00,65.9,54.6,29.87,SW,217,2.0,0.0,67,0.00,,,0.00,WeatherTracker,2013-07-23 10:56:00,
2013-07-23 04:01:00,66.0,54.7,29.88,SSW,210,5.0,0.0,67,0.00,,,0.00,WeatherTracker,2013-07-23 11:01:00,
2013-07-23 04:06:00,66.0,55.1,29.88,SSW,207,6.0,0.0,68,0.00,,,0.00,WeatherTracker,2013-07-23 11:06:00,
2013-07-23 04:11:00,65.9,55.4,29.89,WSW,246,2.0,0.0,69,0.00,,,0.00,WeatherTracker,2013-07-23 11:11:00,
2013-07-23 04:16:00,65.7,55.6,29.89,West,261,6.0,0.0,70,0.00,,,0.00,WeatherTracker,2013-07-23 11:16:00,
2013-07-23 04:21:00,65.5,55.4,29.90,SW,215,3.0,0.0,70,0.00,,,0.00,WeatherTracker,2013-07-23 11:21:00,
2013-07-23 04:26:00,65.4,56.1,29.91,SSW,211,7.0,0.0,72,0.00,,,0.00,WeatherTracker,2013-07-23 11:26:00,
2013-07-23 04:31:00,65.1,56.2,29.90,WSW,254,2.0,0.0,73,0.00,,,0.00,WeatherTracker,2013-07-23 11:31:00,
2013-07-23 04:36:00,64.9,56.4,29.89,WNW,300,4.0,0.0,74,0.00,,,0.00,WeatherTracker,2013-07-23 11:36:00,
2013-07-23 04:41:00,64.7,56.6,29.89,WSW,245,4.0,0.0,75,0.00,,,0.00,WeatherTracker,2013-07-23 11:41:00,
2013-07-23 04:46:00,64.5,56.4,29.89,WSW,243,4.0,0.0,75,0.00,,,0.00,WeatherTracker,2013-07-23 11:46:00,
2013-07-23 04:51:00,64.3,56.6,29.88,WSW,238,3.0,0.0,76,0.00,,,0.00,WeatherTracker,2013-07-23 11:51:00,
2013-07-23 04:56:00,64.2,56.5,29.89,SSW,205,5.0,0.0,76,0.00,,,0.00,WeatherTracker,2013-07-23 11:56:00,
2013-07-23 05:01:00,64.1,56.7,29.90,SSW,213,2.0,0.0,77,0.00,,,0.00,WeatherTracker,2013-07-23 12:01:00,
2013-07-23 05:06:00,64.1,56.7,29.91,SW,215,0.0,0.0,77,0.00,,,0.00,WeatherTracker,2013-07-23 12:06:00,
2013-07-23 05:11:00,64.1,56.4,29.92,South,181,2.0,0.0,76,0.00,,,0.00,WeatherTracker,2013-07-23 12:11:00,
2013-07-23 05:16:00,64.1,56.4,29.92,South,186,2.0,0.0,76,0.00,,,0.00,WeatherTracker,2013-07-23 12:16:00,
2013-07-23 05:22:00,64.1,56.4,29.93,South,174,5.0,0.0,76,0.00,,,0.00,WeatherTracker,2013-07-23 12:22:00,
2013-07-23 05:27:00,64.0,56.3,29.93,SW,217,0.0,0.0,76,0.00,,,0.00,WeatherTracker,2013-07-23 12:27:00,
2013-07-23 05:32:00,64.0,56.3,29.92,WSW,254,5.0,0.0,76,0.00,,,0.00,WeatherTracker,2013-07-23 12:32:00,
2013-07-23 05:37:00,63.9,55.8,29.92,WSW,248,2.0,0.0,75,0.00,,,0.00,WeatherTracker,2013-07-23 12:37:00,
2013-07-23 05:42:00,63.9,55.8,29.91,WSW,248,2.0,0.0,75,0.00,,,0.00,WeatherTracker,2013-07-23 12:42:00,
2013-07-23 05:47:00,64.0,55.9,29.91,SW,226,0.0,0.0,75,0.00,,,0.00,WeatherTracker,2013-07-23 12:47:00,
2013-07-23 05:52:00,64.0,55.5,29.91,WSW,255,1.0,0.0,74,0.00,,,0.00,WeatherTracker,2013-07-23 12:52:00,
2013-07-23 05:57:00,64.1,55.6,29.91,West,265,2.0,0.0,74,0.00,,,0.00,WeatherTracker,2013-07-23 12:57:00,
2013-07-23 06:02:00,64.2,55.7,29.91,WNW,284,0.0,0.0,74,0.00,,,0.00,WeatherTracker,2013-07-23 13:02:00,
2013-07-23 06:07:00,64.3,55.8,29.91,West,262,1.0,0.0,74,0.00,,,0.00,WeatherTracker,2013-07-23 13:07:00,
2013-07-23 06:12:00,64.3,55.5,29.91,WNW,283,1.0,0.0,73,0.00,,,0.00,WeatherTracker,2013-07-23 13:12:00,
2013-07-23 06:17:00,64.5,55.3,29.91,South,182,4.0,0.0,72,0.00,,,0.00,WeatherTracker,2013-07-23 13:17:00,
2013-07-23 06:22:00,64.5,54.9,29.91,SW,232,0.0,0.0,71,0.00,,,0.00,WeatherTracker,2013-07-23 13:22:00,
2013-07-23 06:27:00,64.7,55.1,29.91,WSW,244,3.0,0.0,71,0.00,,,0.00,WeatherTracker,2013-07-23 13:27:00,
2013-07-23 06:32:00,64.9,54.9,29.91,WNW,302,2.0,0.0,70,0.00,,,0.00,WeatherTracker,2013-07-23 13:32:00,
2013-07-23 06:37:00,65.1,55.1,29.90,WSW,251,1.0,0.0,70,0.00,,,0.00,WeatherTracker,2013-07-23 13:37:00,
2013-07-23 06:42:00,65.2,55.2,29.90,West,267,4.0,0.0,70,0.00,,,0.00,WeatherTracker,2013-07-23 13:42:00,
2013-07-23 06:47:00,65.4,55.0,29.89,West,277,5.0,0.0,69,0.00,,,0.00,WeatherTracker,2013-07-23 13:47:00,
2013-07-23 06:52:00,65.5,55.1,29.89,West,275,1.0,0.0,69,0.00,,,0.00,WeatherTracker,2013-07-23 13:52:00,
2013-07-23 06:57:00,65.6,55.1,29.89,SW,232,2.0,0.0,69,0.00,,,0.00,WeatherTracker,2013-07-23 13:57:00,
2013-07-23 07:02:00,65.7,55.2,29.89,WSW,242,4.0,0.0,69,0.00,,,0.00,WeatherTracker,2013-07-23 14:02:00,
2013-07-23 07:07:00,65.8,55.3,29.89,SW,228,3.0,0.0,69,0.00,,,0.00,WeatherTracker,2013-07-23 14:07:00,
2013-07-23 07:12:00,65.9,55.0,29.89,WSW,240,2.0,0.0,68,0.00,,,0.00,WeatherTracker,2013-07-23 14:12:00,
2013-07-23 07:17:00,66.0,55.1,29.89,WSW,238,1.0,0.0,68,0.00,,,0.00,WeatherTracker,2013-07-23 14:17:00,
2013-07-23 07:23:00,66.1,54.8,29.89,WSW,241,1.0,0.0,67,0.00,,,0.00,WeatherTracker,2013-07-23 14:23:00,
2013-07-23 07:28:00,66.3,55.0,29.89,SW,236,2.0,0.0,67,0.00,,,0.00,WeatherTracker,2013-07-23 14:28:00,
2013-07-23 07:33:00,66.5,55.2,29.89,SW,232,2.0,0.0,67,0.00,,,0.00,WeatherTracker,2013-07-23 14:33:00,
2013-07-23 07:38:00,66.7,55.4,29.89,SW,228,2.0,0.0,67,0.00,,,0.00,WeatherTracker,2013-07-23 14:38:00,
2013-07-23 07:43:00,66.8,55.5,29.89,SSW,210,4.0,0.0,67,0.00,,,0.00,WeatherTracker,2013-07-23 14:43:00,
2013-07-23 07:48:00,66.9,56.0,29.89,SW,231,4.0,0.0,68,0.00,,,0.00,WeatherTracker,2013-07-23 14:48:00,
2013-07-23 07:53:00,67.0,56.1,29.90,South,178,3.0,0.0,68,0.00,,,0.00,WeatherTracker,2013-07-23 14:53:00,
2013-07-23 07:58:00,67.1,56.2,29.90,SW,221,2.0,0.0,68,0.00,,,0.00,WeatherTracker,2013-07-23 14:58:00,
2013-07-23 08:03:00,67.4,56.5,29.90,SSW,205,1.0,0.0,68,0.00,,,0.00,WeatherTracker,2013-07-23 15:03:00,
2013-07-23 08:08:00,67.9,56.9,29.89,WSW,243,3.0,0.0,68,0.00,,,0.00,WeatherTracker,2013-07-23 15:08:00,
2013-07-23 08:13:00,68.6,57.2,29.89,SW,233,3.0,0.0,67,0.00,,,0.00,WeatherTracker,2013-07-23 15:13:00,
2013-07-23 08:18:00,69.5,57.6,29.89,SW,232,3.0,0.0,66,0.00,,,0.00,WeatherTracker,2013-07-23 15:18:00,
2013-07-23 08:23:00,70.4,57.6,29.90,SW,235,1.0,0.0,64,0.00,,,0.00,WeatherTracker,2013-07-23 15:23:00,
2013-07-23 08:28:00,71.2,57.9,29.90,WSW,240,5.0,0.0,63,0.00,,,0.00,WeatherTracker,2013-07-23 15:28:00,
2013-07-23 08:33:00,71.7,57.5,29.89,WSW,255,5.0,0.0,61,0.00,,,0.00,WeatherTracker,2013-07-23 15:33:00,
2013-07-23 08:38:00,72.2,57.1,29.90,SSW,206,5.0,0.0,59,0.00,,,0.00,WeatherTracker,2013-07-23 15:38:00,
2013-07-23 08:43:00,72.4,57.7,29.90,SSW,197,8.0,0.0,60,0.00,,,0.00,WeatherTracker,2013-07-23 15:43:00,
2013-07-23 08:48:00,72.4,57.2,29.90,WSW,246,5.0,0.0,59,0.00,,,0.00,WeatherTracker,2013-07-23 15:48:00,
2013-07-23 08:53:00,72.3,57.6,29.90,WSW,243,1.0,0.0,60,0.00,,,0.00,WeatherTracker,2013-07-23 15:53:00,
2013-07-23 08:59:00,72.2,58.0,29.90,West,270,1.0,0.0,61,0.00,,,0.00,WeatherTracker,2013-07-23 15:59:00,
2013-07-23 09:04:00,72.3,57.6,29.90,SW,221,3.0,0.0,60,0.00,,,0.00,WeatherTracker,2013-07-23 16:04:00,
2013-07-23 09:09:00,72.5,57.8,29.91,South,184,1.0,0.0,60,0.00,,,0.00,WeatherTracker,2013-07-23 16:09:00,
2013-07-23 09:14:00,72.8,57.6,29.91,SSW,198,3.0,0.0,59,0.00,,,0.00,WeatherTracker,2013-07-23 16:14:00,
2013-07-23 09:19:00,72.9,57.7,29.91,SW,223,5.0,0.0,59,0.00,,,0.00,WeatherTracker,2013-07-23 16:19:00,
2013-07-23 09:24:00,72.8,57.1,29.91,SW,233,3.0,0.0,58,0.00,,,0.00,WeatherTracker,2013-07-23 16:24:00,
2013-07-23 09:29:00,73.0,56.9,29.91,SW,217,2.0,0.0,57,0.00,,,0.00,WeatherTracker,2013-07-23 16:29:00,
2013-07-23 09:34:00,73.1,56.5,29.91,WSW,250,7.0,0.0,56,0.00,,,0.00,WeatherTracker,2013-07-23 16:34:00,
2013-07-23 09:39:00,73.5,56.8,29.91,SW,235,2.0,0.0,56,0.00,,,0.00,WeatherTracker,2013-07-23 16:39:00,
2013-07-23 09:44:00,74.0,57.3,29.91,SW,219,4.0,0.0,56,0.00,,,0.00,WeatherTracker,2013-07-23 16:44:00,
2013-07-23 09:49:00,74.8,57.5,29.91,SW,221,7.0,0.0,55,0.00,,,0.00,WeatherTracker,2013-07-23 16:49:00,
2013-07-23 09:54:00,75.7,56.8,29.92,WSW,242,6.0,0.0,52,0.00,,,0.00,WeatherTracker,2013-07-23 16:54:00,
2013-07-23 09:59:00,76.6,57.1,29.91,SW,230,2.0,0.0,51,0.00,,,0.00,WeatherTracker,2013-07-23 16:59:00,
2013-07-23 10:04:00,77.1,56.4,29.91,SW,221,4.0,0.0,49,0.00,,,0.00,WeatherTracker,2013-07-23 17:04:00,
2013-07-23 10:09:00,77.8,56.5,29.91,WSW,238,5.0,0.0,48,0.00,,,0.00,WeatherTracker,2013-07-23 17:09:00,
2013-07-23 10:14:00,78.5,56.0,29.91,WSW,246,11.0,0.0,46,0.00,,,0.00,WeatherTracker,2013-07-23 17:14:00,
2013-07-23 10:19:00,79.4,56.8,29.91,SW,221,1.0,0.0,46,0.00,,,0.00,WeatherTracker,2013-07-23 17:19:00,
2013-07-23 10:24:00,80.4,57.1,29.91,SW,236,4.0,0.0,45,0.00,,,0.00,WeatherTracker,2013-07-23 17:24:00,
2013-07-23 10:29:00,81.0,57.6,29.92,SW,235,1.0,0.0,45,0.00,,,0.00,WeatherTracker,2013-07-23 17:29:00,
2013-07-23 10:34:00,81.1,56.5,29.91,West,280,10.0,0.0,43,0.00,,,0.00,WeatherTracker,2013-07-23 17:34:00,
2013-07-23 10:40:00,80.8,56.2,29.92,SW,226,6.0,0.0,43,0.00,,,0.00,WeatherTracker,2013-07-23 17:40:00,
2013-07-23 10:45:00,80.3,57.0,29.92,WSW,241,5.0,0.0,45,0.00,,,0.00,WeatherTracker,2013-07-23 17:45:00,
2013-07-23 10:50:00,80.4,57.1,29.92,WSW,250,7.0,0.0,45,0.00,,,0.00,WeatherTracker,2013-07-23 17:50:00,
2013-07-23 10:55:00,80.7,56.7,29.92,SW,228,5.0,0.0,44,0.00,,,0.00,WeatherTracker,2013-07-23 17:55:00,
2013-07-23 11:00:00,81.1,55.1,29.92,WSW,242,11.0,0.0,41,0.00,,,0.00,WeatherTracker,2013-07-23 18:00:00,
2013-07-23 11:05:00,81.6,56.3,29.92,WSW,248,6.0,0.0,42,0.00,,,0.00,WeatherTracker,2013-07-23 18:05:00,
2013-07-23 11:10:00,82.4,55.6,29.92,SW,219,3.0,0.0,40,0.00,,,0.00,WeatherTracker,2013-07-23 18:10:00,
2013-07-23 11:15:00,83.0,53.3,29.92,West,281,3.0,0.0,36,0.00,,,0.00,WeatherTracker,2013-07-23 18:15:00,
2013-07-23 11:20:00,83.6,55.3,29.91,SW,215,8.0,0.0,38,0.00,,,0.00,WeatherTracker,2013-07-23 18:20:00,
2013-07-23 11:25:00,84.0,53.4,29.91,WNW,286,8.0,0.0,35,0.00,,,0.00,WeatherTracker,2013-07-23 18:25:00,
2013-07-23 11:30:00,83.8,54.0,29.91,SW,236,8.0,0.0,36,0.00,,,0.00,WeatherTracker,2013-07-23 18:30:00,
2013-07-23 11:35:00,83.4,52.8,29.91,SW,235,6.0,0.0,35,0.00,,,0.00,WeatherTracker,2013-07-23 18:35:00,
2013-07-23 11:40:00,83.3,53.5,29.91,WNW,303,4.0,0.0,36,0.00,,,0.00,WeatherTracker,2013-07-23 18:40:00,
2013-07-23 11:46:00,83.6,53.8,29.91,WNW,284,6.0,0.0,36,0.00,,,0.00,WeatherTracker,2013-07-23 18:46:00,
2013-07-23 11:51:00,84.2,55.8,29.91,SSW,205,6.0,0.0,38,0.00,,,0.00,WeatherTracker,2013-07-23 18:51:00,
2013-07-23 11:56:00,84.7,54.8,29.91,WSW,252,4.0,0.0,36,0.00,,,0.00,WeatherTracker,2013-07-23 18:56:00,
2013-07-23 12:01:00,85.0,55.0,29.91,SSW,198,5.0,0.0,36,0.00,,,0.00,WeatherTracker,2013-07-23 19:01:00,
2013-07-23 12:06:00,85.5,53.9,29.91,SSW,200,4.0,0.0,34,0.00,,,0.00,WeatherTracker,2013-07-23 19:06:00,
2013-07-23 12:11:00,85.6,54.0,29.90,WNW,290,8.0,0.0,34,0.00,,,0.00,WeatherTracker,2013-07-23 19:11:00,
2013-07-23 12:16:00,85.6,54.0,29.90,WNW,296,4.0,0.0,34,0.00,,,0.00,WeatherTracker,2013-07-23 19:16:00,
2013-07-23 12:21:00,85.4,53.8,29.91,NW,309,5.0,0.0,34,0.00,,,0.00,WeatherTracker,2013-07-23 19:21:00,
2013-07-23 12:26:00,84.9,54.9,29.91,SW,222,4.0,0.0,36,0.00,,,0.00,WeatherTracker,2013-07-23 19:26:00,
2013-07-23 12:31:00,84.5,56.1,29.91,West,278,3.0,0.0,38,0.00,,,0.00,WeatherTracker,2013-07-23 19:31:00,
2013-07-23 12:36:00,84.8,57.1,29.91,SW,215,9.0,0.0,39,0.00,,,0.00,WeatherTracker,2013-07-23 19:36:00,
2013-07-23 12:41:00,84.9,56.4,29.91,South,181,10.0,0.0,38,0.00,,,0.00,WeatherTracker,2013-07-23 19:41:00,
2013-07-23 12:47:00,84.6,55.4,29.91,South,173,5.0,0.0,37,0.00,,,0.00,WeatherTracker,2013-07-23 19:47:00,
2013-07-23 12:52:00,84.1,54.2,29.91,SSW,207,6.0,0.0,36,0.00,,,0.00,WeatherTracker,2013-07-23 19:52:00,
2013-07-23 12:57:00,83.8,54.0,29.91,SW,225,9.0,0.0,36,0.00,,,0.00,WeatherTracker,2013-07-23 19:57:00,
2013-07-23 13:02:00,83.4,54.4,29.90,WSW,252,3.0,0.0,37,0.00,,,0.00,WeatherTracker,2013-07-23 20:02:00,
2013-07-23 13:07:00,82.8,54.6,29.90,West,263,12.0,0.0,38,0.00,,,0.00,WeatherTracker,2013-07-23 20:07:00,
2013-07-23 13:12:00,82.3,54.8,29.90,WSW,238,4.0,0.0,39,0.00,,,0.00,WeatherTracker,2013-07-23 20:12:00,
2013-07-23 13:17:00,82.3,54.8,29.91,South,189,7.0,0.0,39,0.00,,,0.00,WeatherTracker,2013-07-23 20:17:00,
2013-07-23 13:22:00,82.2,56.1,29.90,South,190,11.0,0.0,41,0.00,,,0.00,WeatherTracker,2013-07-23 20:22:00,
2013-07-23 13:27:00,82.0,56.6,29.90,SW,235,2.0,0.0,42,0.00,,,0.00,WeatherTracker,2013-07-23 20:27:00,
2013-07-23 13:32:00,82.1,56.7,29.90,SW,233,8.0,0.0,42,0.00,,,0.00,WeatherTracker,2013-07-23 20:32:00,
2013-07-23 13:37:00,82.1,56.7,29.90,SSW,211,2.0,0.0,42,0.00,,,0.00,WeatherTracker,2013-07-23 20:37:00,
2013-07-23 13:42:00,82.1,56.0,29.90,West,277,6.0,0.0,41,0.00,,,0.00,WeatherTracker,2013-07-23 20:42:00,
2013-07-23 13:47:00,82.0,56.6,29.90,SSW,213,7.0,0.0,42,0.00,,,0.00,WeatherTracker,2013-07-23 20:47:00,
2013-07-23 13:52:00,82.1,56.0,29.90,WNW,293,5.0,0.0,41,0.00,,,0.00,WeatherTracker,2013-07-23 20:52:00,
2013-07-23 13:58:00,82.2,55.4,29.90,SW,236,7.0,0.0,40,0.00,,,0.00,WeatherTracker,2013-07-23 20:58:00,
2013-07-23 14:03:00,82.2,55.4,29.90,SSW,200,6.0,0.0,40,0.00,,,0.00,WeatherTracker,2013-07-23 21:03:00,
2013-07-23 14:08:00,82.3,54.8,29.90,SW,229,5.0,0.0,39,0.00,,,0.00,WeatherTracker,2013-07-23 21:08:00,
2013-07-23 14:13:00,82.2,55.4,29.90,SW,232,4.0,0.0,40,0.00,,,0.00,WeatherTracker,2013-07-23 21:13:00,
2013-07-23 14:18:00,82.1,54.7,29.90,West,268,4.0,0.0,39,0.00,,,0.00,WeatherTracker,2013-07-23 21:18:00,
2013-07-23 14:23:00,82.0,55.3,29.90,WSW,244,3.0,0.0,40,0.00,,,0.00,WeatherTracker,2013-07-23 21:23:00,
2013-07-23 14:28:00,81.9,55.2,29.89,West,269,1.0,0.0,40,0.00,,,0.00,WeatherTracker,2013-07-23 21:28:00,
2013-07-23 14:33:00,82.0,55.9,29.90,WSW,245,4.0,0.0,41,0.00,,,0.00,WeatherTracker,2013-07-23 21:33:00,
2013-07-23 14:38:00,82.0,55.9,29.89,SSW,211,7.0,0.0,41,0.00,,,0.00,WeatherTracker,2013-07-23 21:38:00,
2013-07-23 14:43:00,82.0,55.9,29.89,SW,234,5.0,0.0,41,0.00,,,0.00,WeatherTracker,2013-07-23 21:43:00,
2013-07-23 14:48:00,81.9,57.2,29.89,WSW,238,5.0,0.0,43,0.00,,,0.00,WeatherTracker,2013-07-23 21:48:00,
2013-07-23 14:54:00,81.8,57.7,29.89,West,276,4.0,0.0,44,0.00,,,0.00,WeatherTracker,2013-07-23 21:54:00,
2013-07-23 14:59:00,81.6,58.2,29.89,WNW,294,6.0,0.0,45,0.00,,,0.00,WeatherTracker,2013-07-23 21:59:00,
2013-07-23 15:04:00,81.4,58.0,29.89,SW,227,6.0,0.0,45,0.00,,,0.00,WeatherTracker,2013-07-23 22:04:00,
2013-07-23 15:09:00,81.5,58.7,29.89,West,281,7.0,0.0,46,0.00,,,0.00,WeatherTracker,2013-07-23 22:09:00,
2013-07-23 15:14:00,81.5,58.1,29.88,WSW,251,7.0,0.0,45,0.00,,,0.00,WeatherTracker,2013-07-23 22:14:00,
2013-07-23 15:19:00,81.5,58.7,29.88,West,265,7.0,0.0,46,0.00,,,0.00,WeatherTracker,2013-07-23 22:19:00,
2013-07-23 15:24:00,81.7,58.9,29.88,WSW,248,3.0,0.0,46,0.00,,,0.00,WeatherTracker,2013-07-23 22:24:00,
2013-07-23 15:29:00,82.2,58.7,29.88,WSW,241,5.0,0.0,45,0.00,,,0.00,WeatherTracker,2013-07-23 22:29:00,
2013-07-23 15:34:00,82.6,58.4,29.88,NW,307,3.0,0.0,44,0.00,,,0.00,WeatherTracker,2013-07-23 22:34:00,
2013-07-23 15:39:00,83.0,58.8,29.88,SW,231,5.0,0.0,44,0.00,,,0.00,WeatherTracker,2013-07-23 22:39:00,
2013-07-23 15:44:00,83.7,58.1,29.88,WSW,246,7.0,0.0,42,0.00,,,0.00,WeatherTracker,2013-07-23 22:44:00,
2013-07-23 15:49:00,84.0,58.4,29.88,SW,225,3.0,0.0,42,0.00,,,0.00,WeatherTracker,2013-07-23 22:49:00,
2013-07-23 15:54:00,84.1,58.5,29.88,WSW,248,2.0,0.0,42,0.00,,,0.00,WeatherTracker,2013-07-23 22:54:00,
2013-07-23 16:00:00,84.1,58.5,29.88,SW,227,3.0,0.0,42,0.00,,,0.00,WeatherTracker,2013-07-23 23:00:00,
2013-07-23 16:05:00,84.3,58.7,29.87,SW,219,6.0,0.0,42,0.00,,,0.00,WeatherTracker,2013-07-23 23:05:00,
2013-07-23 16:10:00,84.2,58.6,29.87,South,179,3.0,0.0,42,0.00,,,0.00,WeatherTracker,2013-07-23 23:10:00,
2013-07-23 16:15:00,84.0,58.4,29.87,SW,219,4.0,0.0,42,0.00,,,0.00,WeatherTracker,2013-07-23 23:15:00,
2013-07-23 16:20:00,83.8,58.2,29.87,SW,232,3.0,0.0,42,0.00,,,0.00,WeatherTracker,2013-07-23 23:20:00,
2013-07-23 16:25:00,83.6,58.0,29.87,SW,236,2.0,0.0,42,0.00,,,0.00,WeatherTracker,2013-07-23 23:25:00,
2013-07-23 16:30:00,83.2,58.3,29.86,SW,228,5.0,0.0,43,0.00,,,0.00,WeatherTracker,2013-07-23 23:30:00,
2013-07-23 16:35:00,83.1,58.3,29.86,SSW,200,10.0,0.0,43,0.00,,,0.00,WeatherTracker,2013-07-23 23:35:00,
2013-07-23 16:40:00,83.1,58.3,29.86,SW,218,4.0,0.0,43,0.00,,,0.00,WeatherTracker,2013-07-23 23:40:00,
2013-07-23 16:45:00,83.3,58.4,29.86,SW,225,6.0,0.0,43,0.00,,,0.00,WeatherTracker,2013-07-23 23:45:00,
2013-07-23 16:50:00,83.5,56.6,29.86,SSW,213,4.0,0.0,40,0.00,,,0.00,WeatherTracker,2013-07-23 23:50:00,
2013-07-23 16:56:00,83.4,55.8,29.86,WSW,239,4.0,0.0,39,0.00,,,0.00,WeatherTracker,2013-07-23 23:56:00,
2013-07-23 17:01:00,83.3,56.4,29.86,WNW,302,3.0,0.0,40,0.00,,,0.00,WeatherTracker,2013-07-24 00:01:00,
2013-07-23 17:06:00,82.9,56.1,29.86,SSW,199,2.0,0.0,40,0.00,,,0.00,WeatherTracker,2013-07-24 00:06:00,
2013-07-23 17:11:00,82.6,56.5,29.86,WSW,241,5.0,0.0,41,0.00,,,0.00,WeatherTracker,2013-07-24 00:11:00,
2013-07-23 17:16:00,82.3,56.2,29.86,SW,230,5.0,0.0,41,0.00,,,0.00,WeatherTracker,2013-07-24 00:16:00,
2013-07-23 17:21:00,82.4,56.3,29.85,SW,228,4.0,0.0,41,0.00,,,0.00,WeatherTracker,2013-07-24 00:21:00,
2013-07-23 17:26:00,83.0,55.5,29.86,SW,234,1.0,0.0,39,0.00,,,0.00,WeatherTracker,2013-07-24 00:26:00,
2013-07-23 17:32:00,83.3,55.7,29.85,WSW,244,6.0,0.0,39,0.00,,,0.00,WeatherTracker,2013-07-24 00:32:00,
2013-07-23 17:37:00,83.1,55.5,29.86,West,259,6.0,0.0,39,0.00,,,0.00,WeatherTracker,2013-07-24 00:37:00,
2013-07-23 17:42:00,83.1,56.9,29.85,SSW,209,1.0,0.0,41,0.00,,,0.00,WeatherTracker,2013-07-24 00:42:00,
2013-07-23 17:47:00,83.1,56.2,29.86,SSW,200,7.0,0.0,40,0.00,,,0.00,WeatherTracker,2013-07-24 00:47:00,
2013-07-23 17:52:00,82.8,55.3,29.85,SW,233,12.0,0.0,39,0.00,,,0.00,WeatherTracker,2013-07-24 00:52:00,
2013-07-23 17:57:00,82.0,55.3,29.85,SSW,207,4.0,0.0,40,0.00,,,0.00,WeatherTracker,2013-07-24 00:57:00,
2013-07-23 18:02:00,81.2,55.2,29.85,SSW,205,7.0,0.0,41,0.00,,,0.00,WeatherTracker,2013-07-24 01:02:00,
2013-07-23 18:07:00,80.6,54.7,29.85,SW,227,5.0,0.0,41,0.00,,,0.00,WeatherTracker,2013-07-24 01:07:00,
2013-07-23 18:12:00,80.1,54.9,29.85,West,260,3.0,0.0,42,0.00,,,0.00,WeatherTracker,2013-07-24 01:12:00,
2013-07-23 18:17:00,79.6,55.1,29.85,SSW,194,7.0,0.0,43,0.00,,,0.00,WeatherTracker,2013-07-24 01:17:00,
2013-07-23 18:22:00,79.2,54.1,29.85,SSW,209,5.0,0.0,42,0.00,,,0.00,WeatherTracker,2013-07-24 01:22:00,
2013-07-23 18:27:00,78.9,53.8,29.85,SW,223,11.0,0.0,42,0.00,,,0.00,WeatherTracker,2013-07-24 01:27:00,
2013-07-23 18:33:00,78.9,54.5,29.85,SSW,207,5.0,0.0,43,0.00,,,0.00,WeatherTracker,2013-07-24 01:33:00,
2013-07-23 18:38:00,78.7,54.3,29.85,WSW,250,7.0,0.0,43,0.00,,,0.00,WeatherTracker,2013-07-24 01:38:00,
2013-07-23 18:43:00,78.4,55.3,29.85,SW,229,10.0,0.0,45,0.00,,,0.00,WeatherTracker,2013-07-24 01:43:00,
2013-07-23 18:48:00,78.0,54.9,29.85,WSW,252,7.0,0.0,45,0.00,,,0.00,WeatherTracker,2013-07-24 01:48:00,
2013-07-23 18:53:00,77.8,55.9,29.85,SSW,200,6.0,0.0,47,0.00,,,0.00,WeatherTracker,2013-07-24 01:53:00,
2013-07-23 18:58:00,77.4,56.2,29.85,SW,230,2.0,0.0,48,0.00,,,0.00,WeatherTracker,2013-07-24 01:58:00,
2013-07-23 19:03:00,76.9,56.3,29.85,SW,223,9.0,0.0,49,0.00,,,0.00,WeatherTracker,2013-07-24 02:03:00,
2013-07-23 19:08:00,76.5,55.9,29.85,WSW,241,2.0,0.0,49,0.00,,,0.00,WeatherTracker,2013-07-24 02:08:00,
2013-07-23 19:13:00,76.3,54.6,29.85,WSW,237,5.0,0.0,47,0.00,,,0.00,WeatherTracker,2013-07-24 02:13:00,
2013-07-23 19:19:00,76.1,54.4,29.85,SW,223,11.0,0.0,47,0.00,,,0.00,WeatherTracker,2013-07-24 02:19:00,
2013-07-23 19:24:00,76.1,53.8,29.85,WSW,248,8.0,0.0,46,0.00,,,0.00,WeatherTracker,2013-07-24 02:24:00,
2013-07-23 19:29:00,76.1,54.4,29.85,WSW,254,4.0,0.0,47,0.00,,,0.00,WeatherTracker,2013-07-24 02:29:00,
2013-07-23 19:34:00,76.1,55.5,29.85,WSW,249,2.0,0.0,49,0.00,,,0.00,WeatherTracker,2013-07-24 02:34:00,
2013-07-23 19:39:00,75.9,55.3,29.86,SW,232,1.0,0.0,49,0.00,,,0.00,WeatherTracker,2013-07-24 02:39:00,
2013-07-23 19:44:00,75.7,54.6,29.86,West,270,4.0,0.0,48,0.00,,,0.00,WeatherTracker,2013-07-24 02:44:00,
2013-07-23 19:49:00,75.5,53.8,29.86,SW,217,1.0,0.0,47,0.00,,,0.00,WeatherTracker,2013-07-24 02:49:00,
2013-07-23 19:54:00,75.3,54.8,29.86,SSW,211,4.0,0.0,49,0.00,,,0.00,WeatherTracker,2013-07-24 02:54:00,
2013-07-23 19:59:00,75.1,56.3,29.86,SW,215,4.0,0.0,52,0.00,,,0.00,WeatherTracker,2013-07-24 02:59:00,
2013-07-23 20:04:00,74.6,54.2,29.86,SSW,204,3.0,0.0,49,0.00,,,0.00,WeatherTracker,2013-07-24 03:04:00,
2013-07-23 20:09:00,74.3,53.9,29.86,SSW,211,7.0,0.0,49,0.00,,,0.00,WeatherTracker,2013-07-24 03:09:00,
2013-07-23 20:14:00,74.0,53.0,29.85,SW,217,1.0,0.0,48,0.00,,,0.00,WeatherTracker,2013-07-24 03:14:00,
2013-07-23 20:19:00,73.8,52.9,29.85,SW,223,2.0,0.0,48,0.00,,,0.00,WeatherTracker,2013-07-24 03:19:00,
2013-07-23 20:24:00,73.7,52.8,29.86,SW,227,1.0,0.0,48,0.00,,,0.00,WeatherTracker,2013-07-24 03:24:00,
2013-07-23 20:29:00,73.5,53.2,29.86,WSW,253,4.0,0.0,49,0.00,,,0.00,WeatherTracker,2013-07-24 03:29:00,
2013-07-23 20:34:00,73.4,54.2,29.86,SW,235,5.0,0.0,51,0.00,,,0.00,WeatherTracker,2013-07-24 03:34:00,
2013-07-23 20:39:00,73.2,55.5,29.86,SW,231,3.0,0.0,54,0.00,,,0.00,WeatherTracker,2013-07-24 03:39:00,
2013-07-23 20:44:00,72.8,55.2,29.86,WSW,242,2.0,0.0,54,0.00,,,0.00,WeatherTracker,2013-07-24 03:44:00,
2013-07-23 20:49:00,72.5,55.4,29.86,SW,215,2.0,0.0,55,0.00,,,0.00,WeatherTracker,2013-07-24 03:49:00,
2013-07-23 20:54:00,72.1,56.0,29.86,SW,215,3.0,0.0,57,0.00,,,0.00,WeatherTracker,2013-07-24 03:54:00,
2013-07-23 21:00:00,71.7,55.6,29.86,SW,226,3.0,0.0,57,0.00,,,0.00,WeatherTracker,2013-07-24 04:00:00,
2013-07-23 21:01:00,71.6,55.5,29.86,SSW,213,2.0,0.0,57,0.00,,,0.00,WeatherTracker,2013-07-24 04:01:00,
2013-07-23 21:02:00,71.5,55.5,29.86,West,263,6.0,0.0,57,0.00,,,0.00,WeatherTracker,2013-07-24 04:02:00,
2013-07-23 21:07:00,71.2,55.2,29.86,SW,219,7.0,0.0,57,0.00,,,0.00,WeatherTracker,2013-07-24 04:07:00,
2013-07-23 21:12:00,71.0,54.5,29.86,SW,223,4.0,0.0,56,0.00,,,0.00,WeatherTracker,2013-07-24 04:12:00,
2013-07-23 21:17:00,71.0,54.5,29.86,SW,216,3.0,0.0,56,0.00,,,0.00,WeatherTracker,2013-07-24 04:17:00,
2013-07-23 21:22:00,70.8,55.3,29.86,SW,227,2.0,0.0,58,0.00,,,0.00,WeatherTracker,2013-07-24 04:22:00,
2013-07-23 21:27:00,70.6,55.6,29.86,WNW,299,5.0,0.0,59,0.00,,,0.00,WeatherTracker,2013-07-24 04:27:00,
2013-07-23 21:32:00,70.3,55.7,29.86,South,191,8.0,0.0,60,0.00,,,0.00,WeatherTracker,2013-07-24 04:32:00,
2013-07-23 21:37:00,70.0,55.5,29.86,WSW,244,3.0,0.0,60,0.00,,,0.00,WeatherTracker,2013-07-24 04:37:00,
2013-07-23 21:42:00,69.7,55.6,29.86,WNW,286,5.0,0.0,61,0.00,,,0.00,WeatherTracker,2013-07-24 04:42:00,
2013-07-23 21:47:00,69.4,54.9,29.86,SW,229,4.0,0.0,60,0.00,,,0.00,WeatherTracker,2013-07-24 04:47:00,
2013-07-23 21:52:00,69.2,55.2,29.86,SW,221,5.0,0.0,61,0.00,,,0.00,WeatherTracker,2013-07-24 04:52:00,
2013-07-23 21:57:00,69.0,55.0,29.86,SW,225,4.0,0.0,61,0.00,,,0.00,WeatherTracker,2013-07-24 04:57:00,
2013-07-23 22:02:00,68.8,55.2,29.86,SW,234,7.0,0.0,62,0.00,,,0.00,WeatherTracker,2013-07-24 05:02:00,
2013-07-23 22:07:00,68.5,55.8,29.86,WSW,244,5.0,0.0,64,0.00,,,0.00,WeatherTracker,2013-07-24 05:07:00,
2013-07-23 22:12:00,68.1,56.3,29.86,WSW,249,8.0,0.0,66,0.00,,,0.00,WeatherTracker,2013-07-24 05:12:00,
2013-07-23 22:18:00,67.6,56.2,29.86,WSW,242,2.0,0.0,67,0.00,,,0.00,WeatherTracker,2013-07-24 05:18:00,
2013-07-23 22:23:00,67.3,56.0,29.86,WSW,241,7.0,0.0,67,0.00,,,0.00,WeatherTracker,2013-07-24 05:23:00,
2013-07-23 22:28:00,67.0,56.1,29.86,WSW,238,5.0,0.0,68,0.00,,,0.00,WeatherTracker,2013-07-24 05:28:00,
2013-07-23 22:33:00,66.6,56.1,29.86,SSW,197,3.0,0.0,69,0.00,,,0.00,WeatherTracker,2013-07-24 05:33:00,
2013-07-23 22:38:00,66.3,56.2,29.86,SSW,213,7.0,0.0,70,0.00,,,0.00,WeatherTracker,2013-07-24 05:38:00,
2013-07-23 22:43:00,66.0,55.9,29.86,WSW,255,8.0,0.0,70,0.00,,,0.00,WeatherTracker,2013-07-24 05:43:00,
2013-07-23 22:48:00,65.8,55.7,29.87,SW,216,4.0,0.0,70,0.00,,,0.00,WeatherTracker,2013-07-24 05:48:00,
2013-07-23 22:53:00,65.6,55.9,29.86,SSW,210,3.0,0.0,71,0.00,,,0.00,WeatherTracker,2013-07-24 05:53:00,
2013-07-23 22:58:00,65.4,55.7,29.86,SSW,205,2.0,0.0,71,0.00,,,0.00,WeatherTracker,2013-07-24 05:58:00,
2013-07-23 23:03:00,65.2,55.6,29.86,WSW,240,2.0,0.0,71,0.00,,,0.00,WeatherTracker,2013-07-24 06:03:00,
2013-07-23 23:08:00,65.1,55.8,29.87,WSW,244,7.0,0.0,72,0.00,,,0.00,WeatherTracker,2013-07-24 06:08:00,
2013-07-23 23:13:00,64.9,55.7,29.87,WSW,240,4.0,0.0,72,0.00,,,0.00,WeatherTracker,2013-07-24 06:13:00,
2013-07-23 23:18:00,64.8,55.6,29.87,SSW,205,8.0,0.0,72,0.00,,,0.00,WeatherTracker,2013-07-24 06:18:00,
2013-07-23 23:23:00,64.7,55.8,29.87,West,267,7.0,0.0,73,0.00,,,0.00,WeatherTracker,2013-07-24 06:23:00,
2013-07-23 23:28:00,64.5,55.6,29.87,West,267,4.0,0.0,73,0.00,,,0.00,WeatherTracker,2013-07-24 06:28:00,
2013-07-23 23:33:00,64.4,55.2,29.87,South,182,5.0,0.0,72,0.00,,,0.00,WeatherTracker,2013-07-24 06:33:00,
2013-07-23 23:38:00,64.4,55.2,29.87,WSW,246,4.0,0.0,72,0.00,,,0.00,WeatherTracker,2013-07-24 06:38:00,
2013-07-23 23:43:00,64.4,55.2,29.86,SSW,210,5.0,0.0,72,0.00,,,0.00,WeatherTracker,2013-07-24 06:43:00,
2013-07-23 23:48:00,64.4,55.2,29.86,WSW,240,3.0,0.0,72,0.00,,,0.00,WeatherTracker,2013-07-24 06:48:00,
2013-07-23 23:53:00,64.3,54.7,29.86,SSW,200,4.0,0.0,71,0.00,,,0.00,WeatherTracker,2013-07-24 06:53:00,
2013-07-23 23:59:00,64.3,54.7,29.87,West,264,5.0,0.0,71,0.00,,,0.00,WeatherTracker,2013-07-24 06:59:00,